Time,TemperatureF,DewpointF,PressureIn,WindDirection,WindDirectionDegrees,WindSpeedMPH,WindSpeedGustMPH,Humidity,HourlyPrecipIn,Conditions,Clouds,dailyrainin,SoftwareType,DateUTC
2013-01-30 00:12:00,35.0,-99.9,-100.00,NW,318,14.0,24.0,-999,0.01,,,0.70,,2013-01-30 06:12:00,
2013-01-30 00:22:00,35.0,-99.9,-100.00,NW,318,14.0,24.0,-999,0.01,,,0.70,,2013-01-30 06:22:00,
2013-01-30 00:42:00,35.0,-99.9,-100.00,NNW,337,9.0,14.0,-999,0.01,,,0.70,,2013-01-30 06:42:00,
2013-01-30 00:52:00,35.0,-99.9,-100.00,NNW,337,9.0,14.0,-999,0.01,,,0.70,,2013-01-30 06:52:00,
2013-01-30 01:02:00,35.0,-99.9,-100.00,North,6,9.0,12.0,-999,0.00,,,0.70,,2013-01-30 07:02:00,
2013-01-30 01:12:00,35.0,-99.9,-100.00,North,6,9.0,12.0,-999,0.00,,,0.70,,2013-01-30 07:12:00,
2013-01-30 01:22:00,35.0,-99.9,-100.00,North,6,9.0,12.0,-999,0.00,,,0.70,,2013-01-30 07:22:00,
2013-01-30 01:32:00,35.0,-99.9,-100.00,North,354,7.0,10.0,-999,0.00,,,0.70,,2013-01-30 07:32:00,
2013-01-30 01:42:00,35.0,-99.9,-100.00,North,354,7.0,10.0,-999,0.00,,,0.70,,2013-01-30 07:42:00,
2013-01-30 01:52:00,35.0,-99.9,-100.00,North,354,7.0,10.0,-999,0.00,,,0.70,,2013-01-30 07:52:00,
2013-01-30 02:02:00,35.0,-99.9,-100.00,NW,324,5.0,8.0,-999,0.00,,,0.70,,2013-01-30 08:02:00,
2013-01-30 02:11:00,35.0,-99.9,-100.00,NW,324,5.0,8.0,-999,0.00,,,0.70,,2013-01-30 08:11:00,
2013-01-30 02:22:00,35.0,-99.9,-100.00,NW,324,5.0,8.0,-999,0.00,,,0.70,,2013-01-30 08:22:00,
2013-01-30 02:32:00,35.0,-99.9,-100.00,NNW,341,6.0,9.0,-999,0.00,,,0.70,,2013-01-30 08:32:00,
2013-01-30 02:42:00,35.0,-99.9,-100.00,NNW,341,6.0,9.0,-999,0.00,,,0.70,,2013-01-30 08:42:00,
2013-01-30 02:52:00,35.0,-99.9,-100.00,NNW,341,6.0,9.0,-999,0.00,,,0.70,,2013-01-30 08:52:00,
2013-01-30 03:02:00,35.0,-99.9,-100.00,NNW,327,5.0,6.0,-999,0.00,,,0.70,,2013-01-30 09:02:00,
2013-01-30 03:12:00,35.0,-99.9,-100.00,NNW,327,5.0,6.0,-999,0.00,,,0.70,,2013-01-30 09:12:00,
2013-01-30 03:22:00,35.0,-99.9,-100.00,NNW,327,5.0,6.0,-999,0.00,,,0.70,,2013-01-30 09:22:00,
2013-01-30 03:32:00,34.0,-99.9,-100.00,North,10,6.0,8.0,-999,0.00,,,0.70,,2013-01-30 09:32:00,
2013-01-30 03:42:00,34.0,-99.9,-100.00,North,10,6.0,8.0,-999,0.00,,,0.70,,2013-01-30 09:42:00,
2013-01-30 03:52:00,34.0,-99.9,-100.00,North,10,6.0,8.0,-999,0.00,,,0.70,,2013-01-30 09:52:00,
2013-01-30 04:02:00,34.0,-99.9,-100.00,North,10,8.0,11.0,-999,0.00,,,0.70,,2013-01-30 10:02:00,
2013-01-30 04:12:00,34.0,-99.9,-100.00,North,10,8.0,11.0,-999,0.00,,,0.70,,2013-01-30 10:12:00,
2013-01-30 04:22:00,34.0,-99.9,-100.00,North,10,8.0,11.0,-999,0.00,,,0.70,,2013-01-30 10:22:00,
2013-01-30 04:32:00,34.0,-99.9,-100.00,North,358,8.0,14.0,-999,0.00,,,0.70,,2013-01-30 10:32:00,
2013-01-30 04:42:00,34.0,-99.9,-100.00,North,358,8.0,14.0,-999,0.00,,,0.70,,2013-01-30 10:42:00,
2013-01-30 04:52:00,34.0,-99.9,-100.00,North,358,8.0,14.0,-999,0.00,,,0.70,,2013-01-30 10:52:00,
2013-01-30 05:02:00,34.0,-99.9,-100.00,North,11,9.0,12.0,-999,0.00,,,0.70,,2013-01-30 11:02:00,
2013-01-30 05:11:00,34.0,-99.9,-100.00,North,11,9.0,12.0,-999,0.00,,,0.70,,2013-01-30 11:11:00,
2013-01-30 05:22:00,34.0,-99.9,-100.00,North,11,9.0,12.0,-999,0.00,,,0.70,,2013-01-30 11:22:00,
2013-01-30 05:33:00,35.0,-99.9,-100.00,NNE,12,13.0,18.0,-999,0.00,,,0.70,,2013-01-30 11:33:00,
2013-01-30 05:42:00,35.0,-99.9,-100.00,NNE,12,13.0,18.0,-999,0.00,,,0.70,,2013-01-30 11:42:00,
2013-01-30 05:52:00,35.0,-99.9,-100.00,NNE,12,13.0,18.0,-999,0.00,,,0.70,,2013-01-30 11:52:00,
2013-01-30 06:03:00,35.0,-99.9,-100.00,NNE,24,11.0,14.0,-999,0.00,,,0.70,,2013-01-30 12:03:00,
2013-01-30 06:13:00,35.0,-99.9,-100.00,NNE,24,11.0,14.0,-999,0.00,,,0.70,,2013-01-30 12:13:00,
2013-01-30 06:22:00,35.0,-99.9,-100.00,NNE,24,11.0,14.0,-999,0.00,,,0.70,,2013-01-30 12:22:00,
2013-01-30 06:30:00,34.0,-99.9,-100.00,NW,325,7.0,12.0,-999,0.01,,,0.71,,2013-01-30 12:30:00,
2013-01-30 06:33:00,34.0,-99.9,-100.00,North,11,8.0,10.0,-999,0.00,,,0.70,,2013-01-30 12:33:00,
2013-01-30 06:43:00,34.0,-99.9,-100.00,North,11,8.0,10.0,-999,0.00,,,0.70,,2013-01-30 12:43:00,
2013-01-30 07:03:00,34.0,-99.9,-100.00,NW,325,7.0,12.0,-999,0.01,,,0.71,,2013-01-30 13:03:00,
2013-01-30 07:13:00,34.0,-99.9,-100.00,NW,325,7.0,12.0,-999,0.01,,,0.71,,2013-01-30 13:13:00,
2013-01-30 07:23:00,34.0,-99.9,-100.00,NW,325,7.0,12.0,-999,0.01,,,0.71,,2013-01-30 13:23:00,
2013-01-30 07:43:00,33.0,-99.9,-100.00,WNW,286,5.0,10.0,-999,0.03,,,0.73,,2013-01-30 13:43:00,
2013-01-30 07:53:00,33.0,-99.9,-100.00,WNW,286,5.0,10.0,-999,0.03,,,0.73,,2013-01-30 13:53:00,
2013-01-30 08:03:00,33.0,-99.9,-100.00,WNW,301,8.0,12.0,-999,0.04,,,0.75,,2013-01-30 14:03:00,
2013-01-30 08:12:00,33.0,-99.9,-100.00,WNW,301,8.0,12.0,-999,0.04,,,0.75,,2013-01-30 14:12:00,
2013-01-30 08:23:00,33.0,-99.9,-100.00,WNW,301,8.0,12.0,-999,0.04,,,0.75,,2013-01-30 14:23:00,
2013-01-30 08:33:00,33.0,-99.9,-100.00,WNW,302,12.0,16.0,-999,0.02,,,0.75,,2013-01-30 14:33:00,
2013-01-30 08:43:00,33.0,-99.9,-100.00,WNW,302,12.0,16.0,-999,0.02,,,0.75,,2013-01-30 14:43:00,
2013-01-30 08:53:00,33.0,-99.9,-100.00,WNW,302,12.0,16.0,-999,0.02,,,0.75,,2013-01-30 14:53:00,
2013-01-30 09:04:00,31.0,-99.9,-100.00,NW,317,15.0,26.0,-999,0.00,,,0.75,,2013-01-30 15:04:00,
2013-01-30 09:12:00,31.0,-99.9,-100.00,NW,317,15.0,26.0,-999,0.00,,,0.75,,2013-01-30 15:12:00,
2013-01-30 09:24:00,31.0,-99.9,-100.00,NW,317,15.0,26.0,-999,0.00,,,0.75,,2013-01-30 15:24:00,
2013-01-30 09:34:00,30.0,-99.9,-100.00,NW,319,19.0,28.0,-999,0.00,,,0.75,,2013-01-30 15:34:00,
2013-01-30 09:43:00,30.0,-99.9,-100.00,NW,319,19.0,28.0,-999,0.00,,,0.75,,2013-01-30 15:43:00,
2013-01-30 09:54:00,30.0,-99.9,-100.00,NW,319,19.0,28.0,-999,0.00,,,0.75,,2013-01-30 15:54:00,
2013-01-30 10:03:00,30.0,-99.9,-100.00,NW,315,15.0,22.0,-999,0.00,,,0.75,,2013-01-30 16:03:00,
2013-01-30 10:13:00,30.0,-99.9,-100.00,NW,315,15.0,22.0,-999,0.00,,,0.75,,2013-01-30 16:13:00,
2013-01-30 10:23:00,30.0,-99.9,-100.00,NW,315,15.0,22.0,-999,0.00,,,0.75,,2013-01-30 16:23:00,
2013-01-30 10:33:00,30.0,-99.9,-100.00,NW,326,18.0,28.0,-999,0.00,,,0.75,,2013-01-30 16:33:00,
2013-01-30 10:42:00,30.0,-99.9,-100.00,NW,326,18.0,28.0,-999,0.00,,,0.75,,2013-01-30 16:42:00,
2013-01-30 10:53:00,30.0,-99.9,-100.00,NW,326,18.0,28.0,-999,0.00,,,0.75,,2013-01-30 16:53:00,
2013-01-30 11:03:00,30.0,-99.9,-100.00,NW,308,14.0,19.0,-999,0.00,,,0.75,,2013-01-30 17:03:00,
2013-01-30 11:13:00,30.0,-99.9,-100.00,NW,308,14.0,19.0,-999,0.00,,,0.75,,2013-01-30 17:13:00,
2013-01-30 11:23:00,30.0,-99.9,-100.00,NW,308,14.0,19.0,-999,0.00,,,0.75,,2013-01-30 17:23:00,
2013-01-30 11:34:00,30.0,-99.9,-100.00,WNW,296,14.0,27.0,-999,0.00,,,0.75,,2013-01-30 17:34:00,
2013-01-30 11:43:00,30.0,-99.9,-100.00,WNW,296,14.0,27.0,-999,0.00,,,0.75,,2013-01-30 17:43:00,
2013-01-30 11:53:00,30.0,-99.9,-100.00,WNW,296,14.0,27.0,-999,0.00,,,0.75,,2013-01-30 17:53:00,
2013-01-30 12:04:00,29.0,-99.9,-100.00,NW,311,9.0,14.0,-999,0.00,,,0.74,,2013-01-30 18:04:00,
2013-01-30 12:13:00,29.0,-99.9,-100.00,NW,311,9.0,14.0,-999,0.00,,,0.74,,2013-01-30 18:13:00,
2013-01-30 12:24:00,29.0,-99.9,-100.00,NW,311,9.0,14.0,-999,0.00,,,0.74,,2013-01-30 18:24:00,
2013-01-30 12:30:00,26.0,-99.9,-100.00,WNW,303,14.0,22.0,-999,0.00,,,0.57,,2013-01-30 18:30:00,
2013-01-30 12:33:00,27.0,-99.9,-100.00,WNW,289,14.0,20.0,-999,0.00,,,0.64,,2013-01-30 18:33:00,
2013-01-30 12:43:00,27.0,-99.9,-100.00,WNW,289,14.0,20.0,-999,0.00,,,0.64,,2013-01-30 18:43:00,
2013-01-30 12:53:00,27.0,-99.9,-100.00,WNW,289,14.0,20.0,-999,0.00,,,0.64,,2013-01-30 18:53:00,
2013-01-30 13:03:00,26.0,-99.9,-100.00,WNW,303,14.0,22.0,-999,0.00,,,0.57,,2013-01-30 19:03:00,
2013-01-30 13:13:00,26.0,-99.9,-100.00,WNW,303,14.0,22.0,-999,0.00,,,0.57,,2013-01-30 19:13:00,
2013-01-30 13:23:00,26.0,-99.9,-100.00,WNW,303,14.0,22.0,-999,0.00,,,0.57,,2013-01-30 19:23:00,
2013-01-30 13:44:00,26.0,-99.9,-100.00,WNW,290,12.0,22.0,-999,0.00,,,0.49,,2013-01-30 19:44:00,
2013-01-30 13:53:00,26.0,-99.9,-100.00,WNW,290,12.0,22.0,-999,0.00,,,0.49,,2013-01-30 19:53:00,
2013-01-30 14:04:00,26.0,-99.9,-100.00,WNW,292,13.0,22.0,-999,0.00,,,0.35,,2013-01-30 20:04:00,
2013-01-30 14:12:00,26.0,-99.9,-100.00,WNW,292,13.0,22.0,-999,0.00,,,0.35,,2013-01-30 20:12:00,
2013-01-30 14:22:00,26.0,-99.9,-100.00,WNW,292,13.0,22.0,-999,0.00,,,0.35,,2013-01-30 20:22:00,
2013-01-30 14:33:00,26.0,-99.9,-100.00,WNW,296,13.0,19.0,-999,0.00,,,0.31,,2013-01-30 20:33:00,
2013-01-30 14:42:00,26.0,-99.9,-100.00,WNW,296,13.0,19.0,-999,0.00,,,0.31,,2013-01-30 20:42:00,
2013-01-30 14:53:00,26.0,-99.9,-100.00,WNW,296,13.0,19.0,-999,0.00,,,0.31,,2013-01-30 20:53:00,
2013-01-30 15:04:00,26.0,-99.9,-100.00,WNW,289,8.0,16.0,-999,0.00,,,0.27,,2013-01-30 21:04:00,
2013-01-30 15:12:00,26.0,-99.9,-100.00,WNW,289,8.0,16.0,-999,0.00,,,0.27,,2013-01-30 21:12:00,
2013-01-30 15:23:00,26.0,-99.9,-100.00,WNW,289,8.0,16.0,-999,0.00,,,0.27,,2013-01-30 21:23:00,
2013-01-30 15:32:00,25.0,-99.9,-100.00,WNW,301,12.0,15.0,-999,0.00,,,0.19,,2013-01-30 21:32:00,
2013-01-30 15:43:00,25.0,-99.9,-100.00,WNW,301,12.0,15.0,-999,0.00,,,0.19,,2013-01-30 21:43:00,
2013-01-30 15:53:00,25.0,-99.9,-100.00,WNW,301,12.0,15.0,-999,0.00,,,0.19,,2013-01-30 21:53:00,
2013-01-30 16:04:00,24.0,-99.9,-100.00,WNW,292,9.0,17.0,-999,0.00,,,0.17,,2013-01-30 22:04:00,
2013-01-30 16:12:00,24.0,-99.9,-100.00,WNW,292,9.0,17.0,-999,0.00,,,0.17,,2013-01-30 22:12:00,
2013-01-30 16:23:00,24.0,-99.9,-100.00,WNW,292,9.0,17.0,-999,0.00,,,0.17,,2013-01-30 22:23:00,
2013-01-30 16:30:00,23.0,-99.9,-100.00,West,276,7.0,13.0,-999,0.00,,,0.15,,2013-01-30 22:30:00,
2013-01-30 16:33:00,23.0,-99.9,-100.00,WNW,291,10.0,18.0,-999,0.00,,,0.16,,2013-01-30 22:33:00,
2013-01-30 16:43:00,23.0,-99.9,-100.00,WNW,291,10.0,18.0,-999,0.00,,,0.16,,2013-01-30 22:43:00,
2013-01-30 16:53:00,23.0,-99.9,-100.00,WNW,291,10.0,18.0,-999,0.00,,,0.16,,2013-01-30 22:53:00,
2013-01-30 17:03:00,23.0,-99.9,-100.00,West,276,7.0,13.0,-999,0.00,,,0.15,,2013-01-30 23:03:00,
2013-01-30 17:12:00,23.0,-99.9,-100.00,West,276,7.0,13.0,-999,0.00,,,0.15,,2013-01-30 23:12:00,
2013-01-30 17:23:00,23.0,-99.9,-100.00,West,276,7.0,13.0,-999,0.00,,,0.15,,2013-01-30 23:23:00,
2013-01-30 17:43:00,21.0,-99.9,-100.00,WNW,289,12.0,20.0,-999,0.00,,,0.13,,2013-01-30 23:43:00,
2013-01-30 17:53:00,21.0,-99.9,-100.00,WNW,289,12.0,20.0,-999,0.00,,,0.13,,2013-01-30 23:53:00,
2013-01-30 18:02:00,20.0,-99.9,-100.00,West,267,8.0,21.0,-999,0.00,,,0.11,,2013-01-31 00:02:00,
2013-01-30 18:11:00,20.0,-99.9,-100.00,West,267,8.0,21.0,-999,0.00,,,0.11,,2013-01-31 00:11:00,
2013-01-30 18:22:00,20.0,-99.9,-100.00,West,267,8.0,21.0,-999,0.00,,,0.11,,2013-01-31 00:22:00,
2013-01-30 18:30:00,20.0,-99.9,-100.00,West,278,6.0,13.0,-999,0.00,,,0.09,,2013-01-31 00:30:00,
2013-01-30 18:32:00,20.0,-99.9,-100.00,WNW,283,7.0,13.0,-999,0.00,,,0.09,,2013-01-31 00:32:00,
2013-01-30 18:43:00,20.0,-99.9,-100.00,WNW,283,7.0,13.0,-999,0.00,,,0.09,,2013-01-31 00:43:00,
2013-01-30 18:53:00,20.0,-99.9,-100.00,WNW,283,7.0,13.0,-999,0.00,,,0.09,,2013-01-31 00:53:00,
2013-01-30 19:02:00,20.0,-99.9,-100.00,West,278,6.0,13.0,-999,0.00,,,0.09,,2013-01-31 01:02:00,
2013-01-30 19:12:00,20.0,-99.9,-100.00,West,278,6.0,13.0,-999,0.00,,,0.09,,2013-01-31 01:12:00,
2013-01-30 19:22:00,20.0,-99.9,-100.00,West,278,6.0,13.0,-999,0.00,,,0.09,,2013-01-31 01:22:00,
2013-01-30 20:02:00,20.0,-99.9,-100.00,West,274,8.0,17.0,-999,0.00,,,0.09,,2013-01-31 02:02:00,
2013-01-30 20:12:00,20.0,-99.9,-100.00,West,274,8.0,17.0,-999,0.00,,,0.09,,2013-01-31 02:12:00,
2013-01-30 20:22:00,20.0,-99.9,-100.00,West,274,8.0,17.0,-999,0.00,,,0.09,,2013-01-31 02:22:00,
2013-01-30 20:32:00,20.0,-99.9,-100.00,WSW,257,7.0,13.0,-999,0.00,,,0.08,,2013-01-31 02:32:00,
2013-01-30 20:42:00,20.0,-99.9,-100.00,WSW,257,7.0,13.0,-999,0.00,,,0.08,,2013-01-31 02:42:00,
2013-01-30 20:52:00,20.0,-99.9,-100.00,WSW,257,7.0,13.0,-999,0.00,,,0.08,,2013-01-31 02:52:00,
2013-01-30 21:03:00,20.0,-99.9,-100.00,West,280,8.0,17.0,-999,0.00,,,0.08,,2013-01-31 03:03:00,
2013-01-30 21:12:00,20.0,-99.9,-100.00,West,280,8.0,17.0,-999,0.00,,,0.08,,2013-01-31 03:12:00,
2013-01-30 21:22:00,20.0,-99.9,-100.00,West,280,8.0,17.0,-999,0.00,,,0.08,,2013-01-31 03:22:00,
2013-01-30 21:33:00,19.0,-99.9,-100.00,WNW,283,5.0,13.0,-999,0.00,,,0.08,,2013-01-31 03:33:00,
2013-01-30 21:42:00,19.0,-99.9,-100.00,WNW,283,5.0,13.0,-999,0.00,,,0.08,,2013-01-31 03:42:00,
2013-01-30 21:52:00,19.0,-99.9,-100.00,WNW,283,5.0,13.0,-999,0.00,,,0.08,,2013-01-31 03:52:00,
2013-01-30 22:02:00,18.0,-99.9,-100.00,WSW,257,6.0,14.0,-999,0.00,,,0.06,,2013-01-31 04:02:00,
2013-01-30 22:11:00,18.0,-99.9,-100.00,WSW,257,6.0,14.0,-999,0.00,,,0.06,,2013-01-31 04:11:00,
2013-01-30 22:22:00,18.0,-99.9,-100.00,WSW,257,6.0,14.0,-999,0.00,,,0.06,,2013-01-31 04:22:00,
2013-01-30 22:30:00,17.0,-99.9,-100.00,WSW,250,5.0,14.0,-999,0.00,,,0.06,,2013-01-31 04:30:00,
2013-01-30 22:32:00,18.0,-99.9,-100.00,West,272,4.0,11.0,-999,0.00,,,0.06,,2013-01-31 04:32:00,
2013-01-30 22:42:00,18.0,-99.9,-100.00,West,272,4.0,11.0,-999,0.00,,,0.06,,2013-01-31 04:42:00,
2013-01-30 22:52:00,18.0,-99.9,-100.00,West,272,4.0,11.0,-999,0.00,,,0.06,,2013-01-31 04:52:00,
2013-01-30 23:04:00,17.0,-99.9,-100.00,WSW,250,5.0,14.0,-999,0.00,,,0.06,,2013-01-31 05:04:00,
2013-01-30 23:12:00,17.0,-99.9,-100.00,WSW,250,5.0,14.0,-999,0.00,,,0.06,,2013-01-31 05:12:00,
2013-01-30 23:22:00,17.0,-99.9,-100.00,WSW,250,5.0,14.0,-999,0.00,,,0.06,,2013-01-31 05:22:00,